Theta_e
292 291 291 290 290 290 290 290 290 290 290 290 290 290 290 290 290 291 291 292 292 291 291 291 292 291 292 292 292 291 291 290 290 290 290 290 289 289 289 289 289 288
291 291 291 291 291 291 290 290 290 290 290 290 290 290 290 290 290 291 291 291 291 291 291 291 291 291 291 291 292 291 290 290 289 291 290 290 289 290 289 289 288 289
292 291 291 291 290 291 291 291 291 290 290 291 291 291 291 290 290 290 290 291 290 290 290 290 290 290 291 291 291 290 290 290 289 290 290 290 290 289 289 289 289 289
292 292 292 292 291 290 291 290 290 290 290 290 290 291 291 291 290 290 290 289 290 290 290 290 290 290 290 290 290 289 290 289 290 290 289 289 289 289 289 289 288 289
292 292 292 292 292 291 291 290 290 290 290 290 291 291 290 290 290 290 290 290 290 290 290 290 290 290 289 290 290 289 289 289 289 289 289 289 289 289 289 289 288 288
291 292 292 292 292 291 290 290 290 290 290 290 290 290 290 291 290 290 290 290 290 290 290 290 289 290 290 289 289 289 289 289 289 289 289 289 289 289 289 289 288 288
291 291 291 291 291 291 290 290 290 290 290 290 290 290 290 290 290 290 290 290 290 289 289 289 290 289 290 289 289 289 289 289 289 288 288 289 289 288 289 289 288 288
291 291 291 291 291 291 290 290 291 290 291 290 290 290 290 290 289 290 290 290 289 289 289 289 289 289 290 290 289 289 289 290 289 288 288 288 288 288 288 289 288 288
291 291 290 290 290 290 290 291 291 291 291 290 290 289 290 290 290 290 290 289 289 289 289 289 289 289 289 289 289 289 289 289 289 289 288 288 288 288 288 289 288 288
291 291 290 289 289 290 290 291 291 291 291 290 290 290 290 290 290 290 290 289 289 289 289 289 289 289 289 289 289 289 289 289 289 289 289 289 289 289 289 289 288 288
291 291 290 290 289 290 290 291 291 290 290 290 290 290 290 290 290 290 289 289 289 288 289 288 289 289 289 289 289 289 289 289 289 289 289 289 289 289 289 289 289 288
292 292 291 290 290 291 290 290 290 290 290 290 289 289 290 290 289 289 289 288 289 289 289 289 289 289 289 288 289 289 289 289 289 289 289 289 289 289 289 289 289 289
293 293 292 292 291 291 291 291 290 290 289 289 289 289 289 289 289 289 289 289 289 289 289 289 289 289 289 289 288 289 288 288 288 288 288 288 289 289 289 289 289 289
294 294 293 293 292 292 291 290 290 289 289 289 289 288 288 288 289 288 289 289 288 289 289 289 289 289 289 288 288 288 288 288 288 288 288 288 288 288 288 288 288 288
294 294 293 292 291 290 290 290 290 290 289 289 288 288 289 289 289 289 288 288 288 288 288 289 288 288 289 288 288 288 288 288 288 287 287 287 287 288 288 288 288 288
294 293 292 292 291 290 290 290 290 289 289 288 288 288 288 288 288 288 288 288 288 288 288 288 288 288 287 287 288 288 288 288 288 287 287 287 287 287 287 287 287 288
293 292 292 291 291 291 291 290 290 290 289 288 288 288 288 287 287 287 287 287 287 287 287 288 288 288 287 288 288 288 287 287 287 287 287 287 286 286 286 287 287 287
292 292 292 291 291 291 291 291 290 289 289 289 288 288 288 287 287 287 287 287 287 287 287 287 288 287 288 287 288 288 287 287 287 287 287 287 286 286 286 286 287 287
292 292 291 291 292 292 291 291 290 289 289 289 288 289 288 287 287 287 287 287 287 286 286 286 287 287 288 288 287 288 288 287 287 287 287 286 286 286 286 286 286 287
291 291 291 291 292 292 291 291 290 289 290 290 289 289 288 287 287 287 287 287 287 286 286 286 287 287 288 288 287 287 288 288 288 288 288 287 287 287 287 287 287 286
291 291 291 291 291 291 291 290 290 290 290 290 289 289 288 288 288 287 287 287 287 286 286 286 286 287 288 288 287 287 288 288 288 288 288 288 288 288 287 287 287 287
291 291 291 291 291 291 290 290 290 290 290 290 289 289 289 288 288 289 288 288 287 286 286 285 286 287 287 287 287 287 288 288 288 288 288 288 288 288 288 288 288 288
291 291 291 291 291 290 290 290 290 290 290 290 289 289 288 288 287 287 287 287 287 286 286 285 286 286 287 287 287 287 287 287 287 288 288 288 287 288 288 288 288 288
291 291 290 290 290 290 290 290 291 291 290 290 289 289 288 288 288 287 287 287 286 286 286 285 285 286 286 287 287 287 287 287 287 287 287 287 287 288 288 288 288 286
292 291 291 290 290 290 290 290 290 290 290 289 289 289 289 289 288 286 286 286 286 286 285 285 285 285 286 287 287 287 286 287 287 287 286 286 286 286 287 287 287 286
292 291 290 290 290 290 290 290 290 289 289 289 289 289 288 288 287 286 286 285 285 285 284 284 284 284 285 287 287 287 287 286 287 286 286 285 286 286 286 286 286 286
Wind_Speed
3 2 2 2 2 2 2 2 1 1 0 0 0 1 1 2 3 3 4 4 4 4 4 4 4 4 4 4 4 4 4 4 4 4 4 4 4 5 5 5 6 5
5 4 3 3 3 2 2 2 2 2 2 1 1 1 0 1 1 2 2 2 2 3 3 3 3 3 3 3 3 3 3 3 4 2 3 5 4 5 5 5 5 4
6 5 5 5 4 4 3 3 3 3 3 2 1 2 2 2 2 2 1 0 1 1 1 2 2 2 2 2 2 2 3 3 3 3 3 3 3 3 4 3 3 3
7 7 6 6 5 5 4 4 4 4 3 3 3 2 2 2 2 3 3 2 2 2 2 2 2 2 2 2 2 2 2 2 2 2 3 3 3 3 3 3 3 2
7 7 7 6 6 6 5 5 6 5 5 4 4 3 4 3 4 4 3 3 3 3 3 3 3 3 3 3 2 3 3 3 3 2 2 3 2 2 2 3 3 3
7 7 7 7 7 7 6 7 7 7 6 6 6 4 5 4 4 5 4 4 4 3 3 3 3 3 3 3 3 3 3 3 3 3 3 3 3 3 2 3 4 4
8 7 8 7 7 8 8 8 8 7 7 7 5 6 5 6 6 6 6 6 5 5 5 5 5 4 4 4 4 3 3 3 4 4 4 4 3 4 4 4 4 4
7 7 6 6 8 8 9 9 8 8 8 7 8 8 7 7 8 7 6 7 7 7 7 6 6 6 5 5 5 5 5 3 4 5 6 5 5 5 6 5 5 6
6 6 6 7 8 8 9 9 9 9 8 8 9 8 8 8 8 8 8 8 8 8 8 8 8 7 7 6 7 7 7 6 6 7 7 7 7 7 8 7 7 7
6 6 7 7 8 8 9 10 8 8 7 8 9 8 8 8 9 9 9 9 9 9 9 9 9 8 8 8 9 9 8 9 8 8 8 8 8 8 8 8 8 9
7 7 7 8 9 8 9 9 8 8 7 8 8 8 9 8 8 8 9 9 9 10 10 10 10 10 10 10 9 9 10 9 9 9 9 10 10 10 9 9 9 10
7 7 8 9 9 9 9 8 8 8 8 8 8 9 9 9 9 8 8 10 10 11 11 11 10 10 11 11 11 10 10 10 10 10 10 10 10 10 11 10 10 11
8 8 8 8 8 8 7 7 8 8 8 9 8 9 9 9 9 10 9 10 11 10 11 11 11 10 10 11 11 11 11 11 10 11 11 10 10 11 11 11 11 11
8 8 7 7 6 6 7 7 7 8 9 8 8 9 10 10 10 10 9 9 10 10 11 10 10 10 10 11 10 11 10 10 11 11 11 11 11 11 11 11 12 12
7 6 5 6 6 6 7 8 8 8 8 8 8 9 8 9 9 9 9 10 10 10 10 9 9 10 9 9 10 11 11 11 11 11 11 12 11 12 12 12 12 12
6 6 6 6 6 8 8 8 7 7 7 8 9 9 9 8 9 9 9 10 10 10 10 9 9 8 11 15 13 10 10 9 9 11 11 12 12 11 12 12 13 12
6 7 6 7 8 7 7 8 8 7 7 8 8 8 9 9 8 9 10 10 11 10 10 9 9 9 15 14 16 18 13 10 10 11 11 11 12 12 12 12 11 12
7 7 7 8 7 9 9 8 7 7 8 8 8 8 9 8 9 10 10 9 9 10 10 10 10 12 14 16 17 18 16 12 11 10 10 11 11 12 11 11 12 11
8 8 8 8 9 9 8 7 7 7 8 8 10 9 7 8 10 9 10 9 9 10 10 10 10 12 13 16 17 18 19 16 11 11 11 12 11 12 12 12 11 10
9 9 9 10 9 8 8 8 8 9 9 8 7 6 8 8 9 10 9 9 9 10 9 9 10 10 14 16 16 18 18 17 13 13 12 12 13 12 11 12 12 11
10 10 10 10 9 9 9 9 9 9 9 8 8 9 8 9 9 9 9 9 9 8 8 9 8 11 13 15 16 17 18 16 12 11 11 12 12 13 13 13 12 11
10 10 10 10 9 9 9 10 10 10 10 8 8 8 7 7 8 8 9 9 9 8 8 10 9 11 13 15 16 17 17 11 11 12 12 12 12 12 12 11 11 11
10 10 10 10 9 9 10 11 10 10 10 7 7 8 8 8 8 8 7 8 8 9 10 10 9 11 13 15 16 17 13 10 11 10 11 12 12 11 11 11 11 12
9 10 10 10 9 10 11 10 10 9 9 7 8 8 8 9 7 7 7 8 9 9 10 10 9 10 12 13 16 17 15 11 10 10 11 11 11 10 10 10 12 14
9 9 10 10 10 11 10 10 10 9 7 5 7 8 9 7 6 7 6 6 8 9 10 11 10 11 12 13 16 17 14 10 10 9 10 11 9 9 10 9 10 11
8 9 10 10 11 11 9 10 8 6 7 7 8 7 8 7 6 6 8 7 6 7 8 10 11 9 11 14 16 17 19 11 9 10 11 11 9 9 8 9 10 9
Wind_Direction
260 265 272 277 267 285 285 292 307 281 222 289 348 27 12 24 351 2 12 23 29 38 37 41 40 47 41 46 44 60 61 61 61 59 60 69 71 66 66 61 61 73
240 250 262 264 260 230 243 252 263 266 264 226 193 177 139 331 347 347 9 23 32 41 38 46 53 53 57 66 59 74 80 74 76 44 78 81 90 89 84 84 85 89
221 227 236 243 252 258 251 242 250 254 264 265 239 228 173 184 190 197 200 222 128 112 79 76 78 72 69 81 86 100 103 109 115 111 108 100 96 101 101 103 97 86
219 219 224 230 238 248 247 250 246 249 247 247 238 238 218 202 206 194 194 199 188 164 153 147 135 136 131 128 132 120 123 121 108 122 122 124 120 123 125 120 121 120
226 219 220 225 226 231 237 237 241 241 241 246 251 229 232 225 221 220 213 201 204 186 179 172 175 168 171 172 176 152 162 153 162 174 167 152 154 149 153 158 156 159
230 228 223 221 219 218 223 228 233 234 234 236 237 236 233 235 235 236 229 225 217 212 198 195 193 190 198 192 201 186 193 185 177 196 191 184 174 183 186 199 190 197
227 219 220 216 219 217 224 226 228 227 229 230 229 230 227 228 233 235 235 234 230 224 222 214 209 206 206 206 221 209 212 208 190 206 209 213 200 201 207 221 220 224
228 227 221 215 216 217 221 225 223 222 222 219 224 228 220 223 227 228 231 231 231 230 229 227 222 221 213 218 224 218 219 209 213 213 218 221 216 223 215 218 229 234
222 221 216 219 223 227 227 225 224 223 214 215 221 224 217 219 223 225 225 226 228 231 231 229 227 225 223 221 226 227 226 220 218 222 223 223 221 225 224 217 220 228
222 217 215 218 223 227 231 230 228 227 216 220 223 222 221 215 218 224 224 223 228 229 230 230 227 225 225 223 228 229 230 231 225 223 227 231 232 232 230 225 223 228
228 215 215 215 220 222 226 228 228 228 226 225 223 226 225 221 218 217 223 224 224 226 228 230 228 226 227 227 227 229 232 234 233 231 230 232 234 236 237 236 235 234
233 222 221 219 218 219 221 219 219 221 225 226 222 231 227 223 224 216 214 223 225 227 229 231 229 226 227 228 229 228 229 233 236 236 236 235 235 235 236 235 238 240
234 227 224 223 220 220 214 209 211 214 215 222 217 222 226 227 224 225 222 223 228 228 229 229 230 227 227 228 229 229 229 230 232 234 237 237 236 235 234 235 236 238
235 232 228 230 231 226 221 219 214 209 212 215 212 216 223 226 226 223 226 222 228 230 230 229 228 229 229 228 227 227 228 230 230 232 234 236 236 235 234 234 235 235
239 233 233 232 227 231 231 227 221 216 211 208 207 216 218 223 225 225 225 226 227 228 230 225 225 228 227 223 223 225 227 231 231 231 233 237 239 237 235 233 234 236
245 243 239 230 225 227 229 227 224 219 213 211 213 215 218 217 220 222 224 229 230 228 224 223 223 225 224 223 222 228 226 227 230 233 233 236 239 241 239 234 232 232
247 244 233 233 233 231 229 226 225 219 219 221 219 215 216 214 210 218 220 224 227 227 224 221 223 225 227 220 221 224 231 237 236 237 235 235 236 238 241 240 235 232
248 245 240 240 235 235 230 227 222 221 224 225 225 221 217 209 213 218 221 219 222 226 228 227 228 227 220 221 220 221 218 228 237 240 237 236 236 236 240 242 241 238
254 250 247 243 239 238 232 226 224 225 226 224 225 223 210 210 219 217 220 218 218 224 228 228 231 228 216 218 219 219 219 218 234 236 237 238 235 235 238 240 241 240
253 251 249 246 243 241 236 233 228 228 228 224 225 220 216 222 225 223 221 217 216 220 231 234 233 224 212 219 220 219 219 218 231 234 237 239 237 233 234 237 237 238
245 246 249 250 247 243 241 238 232 236 233 226 220 223 218 219 222 222 223 220 220 219 230 242 238 229 214 218 220 220 222 220 230 232 236 240 240 236 235 237 237 237
239 245 248 248 246 243 243 242 235 232 234 225 221 232 228 229 236 228 232 227 223 219 225 242 246 225 205 218 220 221 219 220 228 232 235 238 240 238 235 235 236 235
241 242 247 249 248 246 245 244 240 237 236 222 227 230 227 224 222 218 222 226 223 217 224 238 249 229 207 215 220 219 215 223 226 229 233 236 237 237 236 236 232 231
246 244 248 247 247 246 246 246 245 242 240 215 223 229 229 230 221 220 220 223 222 225 220 229 243 235 214 210 217 215 209 219 223 227 232 234 237 233 234 233 232 224
255 252 250 250 248 248 245 249 248 243 236 218 228 232 236 237 220 222 225 218 218 224 223 228 243 247 230 210 215 214 210 219 223 229 234 235 232 233 230 231 235 227
259 252 252 251 251 250 249 250 252 248 242 237 234 230 236 234 225 223 229 231 214 213 225 225 234 240 236 217 211 214 210 212 222 228 231 233 228 230 231 229 230 233